EW2649 Weather Reports


Display with metric or nautical units.
time (UTC)temp
F
wind
direction
speed
MPH
gust
MPH
rain 1hr
in
rain 24hr
in
rain mn
in
humidity
%
barometer
mb
20260904061501 60 306 5.0 10.0 0.04 0.05 0.05 90 1008.1
20260904054602 62 355 4.0 9.0 0.03 0.03 0.03 90 1007.9
20260904053104 63 5 1.0 5.0 0.02 0.02 0.02 90 1008.0
20260904051616 63 295 1.0 3.0 0.01 0.01 0.01 90 1008.1
20260904050058 63 181 0.0 2.0 0.00 0.00 0.00 89 1008.1
20260904044600 63 181 0.0 3.0 0.00 0.00 0.00 89 1008.1
20260904043107 63 80 0.0 4.0 0.00 0.00 0.00 88 1008.0
20260904041557 64 219 3.0 13.0 0.00 0.00 0.00 87 1007.9
20260904040057 64 215 5.0 11.0 0.00 0.00 0.00 87 1007.7
20260904034557 65 184 3.0 11.0 0.00 0.00 0.00 86 1007.5
20260904033056 65 237 7.0 12.0 0.00 0.00 0.00 85 1007.5
20260904031556 65 221 1.0 3.0 0.00 0.00 0.00 84 1007.5
20260904030106 65 94 1.0 5.0 0.00 0.00 0.00 84 1007.2
20260904024555 65 86 0.0 6.0 0.00 0.00 0.00 85 1007.2
20260904023054 65 275 5.0 15.0 0.00 0.00 0.00 86 1007.2
20260904021553 65 202 5.0 12.0 0.00 0.00 0.00 86 1007.3
20260904020052 65 208 7.0 14.0 0.00 0.00 0.00 86 1007.5
20260904014602 66 211 5.0 18.0 0.00 0.00 0.00 84 1007.7
20260904013051 67 183 5.0 13.0 0.00 0.00 0.00 81 1007.5
20260904011550 68 227 7.0 16.0 0.00 0.00 0.00 78 1007.4
20260904010050 68 209 6.0 15.0 0.00 0.00 0.00 76 1007.5
20260904004549 70 209 4.0 14.0 0.00 0.00 0.00 73 1007.6
20260904003049 71 196 4.0 15.0 0.00 0.00 0.00 70 1007.6
20260904001548 72 197 7.0 15.0 0.00 0.00 0.00 67 1007.7
20260904000048 73 334 5.0 15.0 0.00 0.00 0.00 65 1007.8
20260903234541 73 190 7.0 23.0 0.00 0.00 0.00 64 1007.7
20260903233045 73 149 7.0 18.0 0.00 0.00 0.00 63 1007.7
20260903231536 72 202 4.0 20.0 0.00 0.00 0.00 65 1007.9
20260903230044 73 229 7.0 22.0 0.00 0.00 0.00 66 1008.2
20260903224534 72 47 4.0 15.0 0.00 0.00 0.00 67 1008.4
20260903223033 72 219 3.0 14.0 0.00 0.00 0.00 67 1008.6
20260903221531 71 141 5.0 14.0 0.00 0.00 0.00 67 1008.7
20260903220035 71 184 6.0 18.0 0.00 0.00 0.00 68 1008.9
20260903214530 70 279 11.0 18.0 0.00 0.00 0.00 68 1009.2
20260903213028 71 254 15.0 22.0 0.00 0.00 0.00 67 1009.4
20260903211527 71 256 3.0 10.0 0.00 0.00 0.00 66 1009.1
20260903210033 72 246 7.0 12.0 0.00 0.00 0.00 66 1009.2
20260903204526 72 202 10.0 15.0 0.00 0.00 0.00 64 1009.4
20260903203027 73 207 5.0 14.0 0.00 0.00 0.00 63 1009.3
20260903201524 72 208 8.0 14.0 0.00 0.00 0.00 64 1009.4
20260903200022 72 264 6.0 10.0 0.00 0.00 0.00 62 1009.7
20260903194521 73 242 7.0 14.0 0.00 0.00 0.00 62 1009.8
20260903193020 72 260 8.0 15.0 0.00 0.00 0.00 63 1010.0
20260903191517 73 226 7.0 15.0 0.00 0.00 0.00 63 1010.3
20260903190013 73 263 6.0 14.0 0.00 0.00 0.00 64 1010.4
20260903184511 72 307 10.0 17.0 0.00 0.00 0.00 63 1010.5
20260903183007 72 278 7.0 16.0 0.00 0.00 0.00 66 1010.3
20260903181505 71 276 4.0 13.0 0.00 0.00 0.00 66 1010.5
20260903180002 71 262 10.0 14.0 0.00 0.00 0.00 66 1010.4
20260903174558 69 175 6.0 10.0 0.00 0.00 0.00 68 1010.4
20260903173054 68 142 3.0 7.0 0.00 0.00 0.00 72 1010.6
20260903171550 68 227 7.0 10.0 0.00 0.00 0.00 72 1010.7
20260903170049 67 213 8.0 11.0 0.00 0.00 0.00 72 1010.8
20260903164543 66 200 6.0 10.0 0.00 0.00 0.00 73 1010.9
20260903163042 65 158 6.0 11.0 0.00 0.00 0.00 75 1010.9
20260903161542 65 197 6.0 11.0 0.00 0.00 0.00 75 1011.2
20260903160030 66 217 5.0 14.0 0.00 0.00 0.00 74 1011.2
20260903154526 64 205 5.0 12.0 0.00 0.00 0.00 78 1011.2
20260903153021 63 200 4.0 9.0 0.00 0.00 0.00 83 1011.3
20260903151517 60 160 2.0 5.0 0.00 0.00 0.00 89 1011.6
20260903150016 57 173 1.0 5.0 0.00 0.00 0.00 92 1011.5
20260903144508 55 150 2.0 5.0 0.00 0.00 0.00 92 1011.5
20260903143007 53 175 2.0 3.0 0.00 0.00 0.00 92 1011.7
20260903141506 51 178 2.0 4.0 0.00 0.00 0.00 92 1011.5
20260903140059 51 180 2.0 3.0 0.00 0.00 0.00 91 1011.5
20260903134557 50 182 2.0 4.0 0.00 0.00 0.00 91 1011.4
20260903133109 50 182 1.0 5.0 0.00 0.00 0.00 91 1011.4
20260903131608 49 201 2.0 3.0 0.00 0.00 0.00 91 1011.4
20260903130110 49 215 2.0 4.0 0.00 0.00 0.00 91 1011.4
20260903124556 49 169 1.0 5.0 0.00 0.00 0.00 91 1011.3
20260903123054 49 171 2.0 5.0 0.00 0.00 0.00 91 1011.4
20260903121552 49 169 2.0 3.0 0.00 0.00 0.00 91 1011.5
20260903120049 49 166 3.0 5.0 0.00 0.00 0.00 91 1011.6
20260903114547 49 153 2.0 5.0 0.00 0.00 0.00 90 1011.8
20260903113046 49 190 1.0 3.0 0.00 0.00 0.00 90 1012.0
20260903111543 50 188 1.0 4.0 0.00 0.00 0.00 90 1012.1
20260903110041 50 187 2.0 3.0 0.00 0.00 0.00 90 1012.1
20260903104540 51 226 0.0 4.0 0.00 0.00 0.00 90 1012.1
20260903103038 50 189 2.0 5.0 0.00 0.00 0.00 90 1012.1
20260903101536 50 178 3.0 5.0 0.00 0.00 0.00 90 1012.2
20260903100036 50 180 2.0 4.0 0.00 0.00 0.00 90 1012.2
20260903094531 51 169 1.0 5.0 0.00 0.00 0.00 90 1012.3
20260903093032 51 183 3.0 5.0 0.00 0.00 0.00 90 1012.4
20260903091530 51 188 3.0 5.0 0.00 0.00 0.00 90 1012.6
20260903090025 51 175 2.0 4.0 0.00 0.00 0.00 89 1012.6
20260903084524 52 174 2.0 4.0 0.00 0.00 0.00 89 1012.7
20260903083019 52 174 1.0 3.0 0.00 0.00 0.00 89 1012.7
20260903081518 52 174 1.0 4.0 0.00 0.00 0.00 89 1012.8
20260903080016 52 171 3.0 5.0 0.00 0.00 0.00 88 1012.7
20260903074513 53 163 1.0 3.0 0.00 0.00 0.00 88 1012.6
20260903073011 53 161 3.0 5.0 0.00 0.00 0.00 88 1012.5
20260903071509 53 172 2.0 4.0 0.00 0.00 0.00 87 1012.6
20260903070005 53 175 0.0 0.0 0.00 0.00 0.00 86 1012.6
20260903064528 54 175 0.0 0.0 0.00 0.00 0.00 85 1012.6
20260903063019 54 175 0.0 0.0 0.00 0.00 0.00 85 1012.6